Location: Peterborough
(44.3091°N, 78.3197°W)
Time: 18:54:25
(UTC-04:00)

Vanguard 3 - Pass Details

Date: 30 March 2023
Orbit: 507 x 3246 km, 33.4° (Epoch: 05 June)

Event Time Altitude Azimuth Distance (km) Brightness Sun altitude
Exits shadow 02:47:53 46° 162° (SSE) 3,851 10.1 -37.9°
Maximum altitude 02:48:58 46° 155° (SSE) 3,866 10.2 -37.8°
Drops below altitude 10° 03:06:54 10° 91° (E) 6,001 11.9 -36.1°
Sets 03:11:28 0° 86° (E) 6,829 12.3 -35.7°
